CAPE
2550 2628 2314 1941 1760 2029 2026 2067 2120 2176 2045 1979 1789 1730 1718 1690 1561 1648 1880 1740 1961 3142 2339 2380 2754 2721 2970 2906 3184 3300 3348 3698 3719 3759 4289 3994 3929 3606 3297 3472 3138 3767 3287 2964 2357 2226 2353 1927 1540 2194 2568 2037 2162 2253 2413 2958 2805 2206 2441 2830 2715 2558 1851 2032 1986 2198 2274 3153 3111 2904 3190 3033 2780 2364 2188 2575 3802 3494 3576 3593 3607 3957 3656 3675 3538
2428 2703 2664 2042 2048 2065 2038 2027 1945 1970 1937 1785 1970 1746 1622 1540 1449 1095 1579 1498 1779 1979 2284 2384 2392 2507 2460 2470 2305 2714 3146 3347 3473 3513 3692 4130 3913 4121 3440 3265 3404 3669 3569 3277 3499 3655 3371 2161 1564 1826 2186 1931 2142 2006 1935 1605 2134 2200 2046 1893 1818 2457 2644 1988 2214 2254 2144 2521 2460 2565 2871 3030 3316 3680 3486 3027 2722 3141 3348 3141 3027 2792 3355 3253 3247
2190 2067 2383 2478 2390 2530 2357 2405 2170 1932 1795 1617 1477 1586 1573 1290 1571 1376 1339 1466 1436 1405 2019 1962 2304 2424 2409 2418 2260 2347 2617 2845 2941 3090 3593 3988 3953 3704 3388 3154 3452 3394 3570 3435 3210 3146 3118 3199 2611 2449 2766 2016 1842 1766 1747 1711 1698 1944 1845 1720 1553 1663 2253 2478 2192 2321 2376 2383 2772 3055 2860 3398 3520 3344 3591 3530 3408 3374 3358 3142 3002 2992 3076 3473 3681
2129 1670 1932 2229 2335 2219 2438 2607 2489 2159 1809 1558 1338 1169 1129 1329 1103 1417 1252 1269 1372 1422 1662 1741 1952 2365 2390 2421 2317 2130 2579 2592 2719 2842 3239 3480 3603 3429 3087 3054 3391 3350 3349 3408 3416 3249 3023 2960 3054 2564 2276 2204 2113 1986 1788 1508 1512 1663 2218 2216 1787 1584 1474 2129 2461 2112 2253 2474 2867 2797 3098 3433 3319 3305 3475 3439 3413 3457 3416 3611 3463 3286 2757 2846 3517
1543 1580 1475 1609 1860 1926 1720 2234 2496 2453 2122 1686 1348 1065 853 920 1168 1034 1224 1137 1069 1230 1687 1638 1787 2110 2214 2184 2559 2104 2712 2536 2430 2547 2731 2996 3218 3126 3062 3197 2995 3150 3237 3271 3707 3093 3059 2971 2977 2800 2582 2311 2472 2338 2129 1887 1470 1400 1378 1818 2273 1799 1518 2600 2528 2545 2841 2886 2806 3315 3586 3654 3732 3974 4092 3917 3734 3483 3414 3591 3429 3237 2921 2880 2925
1415 1251 1790 1773 1554 1966 2858 2066 1902 2092 2305 2131 1601 1100 880 456 536 1027 974 950 927 909 1219 1633 1752 2050 2058 1969 2328 2482 2202 2695 2335 2220 2454 2852 3135 3122 2945 2824 3092 3122 3207 3252 3249 3152 2992 2984 2863 2807 2732 2682 2592 2595 2408 2050 1695 1649 1604 1614 1782 2313 2525 2540 2866 3109 2612 2429 2823 3080 3140 3478 3665 3710 3601 3381 3316 3521 3824 3790 3365 3286 3174 3342 3501
1490 1386 1793 2466 2726 2545 2125 1938 1994 1684 1532 1674 1608 1216 1245 1295 195 815 904 788 674 560 791 1402 1829 2006 1986 1871 1931 2389 2179 2007 2398 2658 2419 2279 2501 2920 2991 2902 2779 2934 3155 3054 2969 2885 2814 2800 2703 2624 2611 2602 2560 2450 2399 2167 1861 1733 2122 2208 2072 2427 2626 2282 1900 2051 2428 2541 2581 3018 3216 3396 3605 3429 3292 3320 3847 4044 3933 3623 3273 3351 3923 3838 3550
1694 1864 1915 1705 1763 2121 2122 1872 1718 1632 1630 1826 1591 1146 1304 1124 858 664 528 854 822 584 309 754 1406 1933 1981 1783 1724 2013 2223 2096 1941 2342 2757 2665 2390 2226 2415 2731 2794 2704 2685 2758 2725 2676 2659 2573 2484 2511 2418 2442 2453 2428 2261 2515 2664 2544 2548 2514 2347 2227 2335 2604 2650 2488 2206 2257 2417 2476 2765 3006 3242 3569 3753 3992 3984 3412 3406 3693 3558 3005 2250 2733 3478
1405 1418 1484 1710 2069 2183 1952 1909 1637 1675 1616 1463 1323 1077 1091 1249 1196 976 300 788 805 784 386 424 892 1416 1939 1790 1643 1721 2185 2176 2056 2162 2366 2455 2546 2579 2164 2136 2420 2593 2556 2452 2422 2362 2314 2315 2311 2224 2459 3054 2807 2607 2425 2284 2435 2590 2447 2329 2431 2370 2209 2080 2185 2720 3198 3348 3290 3179 3163 3234 3288 3252 3178 3309 3366 3121 2495 2131 2289 2450 2732 3086 3489
1324 1372 1496 1438 1626 2152 1801 1349 1661 1801 1851 1716 1478 1270 1116 1333 1281 953 708 651 501 715 715 842 621 964 1394 1737 1626 1624 1800 2247 2373 2090 2308 2444 2252 2221 2371 2239 2060 2202 2256 2206 2113 2065 2041 1937 1890 2563 2594 3062 2817 2494 2278 2384 2532 2350 2302 2309 2287 2494 2552 2454 2370 2263 2216 2317 2643 3139 3363 3423 3402 3527 3456 3080 2858 2473 2491 2654 3192 3477 3473 3449 3243
914 1035 1176 1244 1332 1835 1999 1644 1458 1710 1824 1745 1653 1424 1203 1331 1225 950 1153 890 722 566 559 586 805 702 915 1247 1574 1542 1541 1890 2211 2076 2040 2312 2463 2266 2150 2200 2153 2033 1898 1772 1683 1616 1570 1568 1474 1934 2854 2792 2599 2198 1989 1973 2001 2298 2436 2948 2929 2448 2548 2725 2681 2695 2730 2650 2644 2825 2990 3102 3163 3156 3068 2902 2644 2228 2247 2394 2551 2693 2776 2815 2797
507 611 624 883 1091 980 1399 1710 1459 1390 1403 1266 1411 1381 1269 1150 1100 950 1138 1302 895 821 821 752 825 1201 1001 856 1097 1386 1471 1510 1822 2059 1970 2052 2350 2485 2308 2170 2128 1918 1686 1538 1384 1380 1324 1207 1114 1047 933 914 1592 2079 1920 1789 1745 1749 1835 2172 3068 3786 3545 3413 3249 3227 3156 3055 3049 3074 3089 3051 3041 3029 2953 2704 2487 2582 2579 3125 3315 2880 2434 2599 2690
306 353 403 487 684 1006 949 1266 1492 1674 1852 1988 2111 2174 1872 1602 1489 1601 1623 1728 1488 1007 799 701 920 1350 1558 1050 806 982 1194 1372 1421 1571 1826 1851 1979 2271 2286 2274 2083 2014 1808 1495 1210 1179 1201 1172 1042 817 665 1177 2163 1677 1550 1596 1600 1562 1577 1575 1588 1717 2338 2978 3240 3328 3435 3522 3400 3313 3161 3053 3007 2980 2866 2694 2410 2361 2584 2736 2705 2605 2506 2403 2207
278 347 356 294 345 572 683 833 940 1170 1255 1164 1861 1905 1816 1890 2354 2360 2220 1839 1340 1367 1290 856 924 1161 1417 1537 1707 1576 1106 1012 1173 1228 1212 1395 1594 1776 2010 2161 2124 1974 1818 1673 1402 1142 1106 1096 1058 967 808 678 521 1040 1785 1606 1448 1388 1400 1372 1341 1380 1436 1481 1471 1803 2355 2662 2989 3259 3547 3800 3705 3473 3259 2972 2794 3071 3169 3057 2806 2598 2617 2650 2596
358 418 490 496 441 504 558 581 634 804 1027 1259 1319 1456 1532 1422 1783 2157 2165 2085 1504 1264 1706 1787 1598 1744 1753 1690 1658 1716 1509 1470 1176 892 903 954 972 1354 1580 1760 1861 1902 1816 1653 1473 1220 1142 1063 1021 994 916 808 706 544 903 1799 1752 1498 1316 1210 1184 1206 1216 1244 1291 1290 1272 1292 1401 1584 1871 2305 2900 3276 3476 3632 3719 3593 3396 3350 3352 3282 3079 2856 2867
314 376 406 490 555 614 642 611 601 617 637 792 1077 1178 1262 1344 1460 1885 2100 2229 2265 1794 1957 1945 1917 1888 1559 1730 1567 1426 1532 1543 1459 1207 987 957 942 908 1148 1376 1527 1507 1531 1590 1519 1285 942 916 1010 970 920 883 898 810 954 1014 1873 1990 1773 1555 1345 1194 1130 1132 1248 1312 1239 1147 1064 1038 1039 984 1059 1415 1946 2419 2611 2629 2530 2340 2831 3119 3127 2868 2638
92 186 238 296 372 514 603 618 666 663 695 703 724 1114 1195 1160 1244 1642 1914 2079 2248 1953 2031 2288 2390 2324 2192 1962 1748 1486 1492 1585 1563 1435 1256 1050 906 890 881 875 1104 1332 1240 1106 1105 1151 998 681 460 732 847 868 849 813 761 646 1189 2232 2355 2271 2180 2001 1771 1648 1565 1541 1556 1534 1586 1775 1886 1828 1593 1190 765 918 1386 1503 1361 1186 968 823 1215 1553 1772
0 0 0 0 0 21 200 293 378 454 590 695 742 726 773 756 960 1089 1107 1304 1436 1905 2188 2194 2130 2292 2273 2068 1795 1650 1571 1655 1616 1597 1434 1394 1324 1089 883 816 831 887 1216 1028 911 897 850 1095 1469 606 509 577 802 919 846 720 641 975 2331 2862 2871 2876 2797 2791 2826 2535 2282 2347 2609 2760 2768 2723 2438 1972 1618 1433 1286 1020 912 922 814 633 746 1314 1810
0 0 0 0 0 0 1 6 44 261 482 824 727 628 592 504 569 792 885 888 1087 1347 1482 1606 1791 1998 2206 2344 2501 2322 2019 1789 1510 1383 1394 1386 1424 1403 1311 1074 884 842 853 1143 1118 924 933 925 1353 1318 766 646 530 642 721 845 771 712 673 1288 2068 2581 2929 3356 3613 3690 3525 3492 3484 3395 3244 3052 2795 2473 2153 1878 1644 1446 1288 1237 1084 852 699 637 737
0 0 0 0 0 0 0 0 0 98 495 576 532 691 418 469 503 599 692 777 839 963 1299 1419 1577 1737 1763 1800 2251 2500 2388 2338 2099 1633 1422 1284 1322 1393 1416 1409 1251 1099 1027 994 1162 1171 997 946 929 941 930 901 833 710 640 628 574 614 672 666 660 697 778 1007 1630 2119 2251 2466 2496 2497 2519 2415 2222 2005 1852 1765 1680 1599 1535 1486 1418 1246 1081 949 883
1 0 0 0 0 0 0 0 0 0 572 496 763 1178 667 334 298 397 543 700 907 891 862 1084 1270 1428 1551 1618 1775 2025 2258 2256 2254 2201 2094 1820 1412 1244 1338 1378 1371 1266 1182 1222 1328 1390 1372 1357 1335 1207 1105 1092 1032 956 852 728 690 738 760 772 734 705 679 621 831 1474 1184 1138 1245 1394 1561 1666 1694 1697 1684 1606 1580 1640 1691 1710 1689 1597 1450 1326 1217
8 0 0 0 0 0 0 0 0 0 0 62 1310 830 815 945 860 537 279 354 500 718 883 864 903 1065 1188 1266 1364 1462 1990 2346 1787 2185 2439 2436 2200 1935 1565 1279 1359 1403 1345 1266 1532 1650 1686 1669 1649 1634 1576 1462 1277 1286 1199 1114 1097 730 782 807 838 859 902 889 874 828 741 993 1056 1114 1170 1299 1819 1939 1894 1834 1763 1710 1753 1768 1768 1666 1578 1513 1406
10 2 0 0 0 0 0 0 0 0 3 133 0 0 2 208 759 976 824 834 827 770 715 690 783 799 849 920 1302 1584 1670 1229 1360 1414 1670 2094 2318 2560 2433 2126 1688 1373 1382 1348 1465 1808 1968 1994 1954 2002 1851 1871 1733 1688 1458 1456 1505 1538 1462 1254 925 905 907 936 956 1029 1116 1080 1064 1026 971 982 980 1132 1790 2283 2333 2263 2239 2129 2008 1914 1874 1813 1750
0 17 6 0 0 0 0 0 0 0 1 0 0 0 3 127 432 825 949 1036 1027 885 812 770 533 685 747 797 798 816 854 932 1059 1436 1610 1727 2004 2228 2386 2361 2049 1604 1239 1223 1267 1258 1472 1872 2122 2294 2249 2043 1918 1824 1933 1971 2023 2025 2031 1939 1792 1548 1281 1244 1232 1216 1300 1327 1319 1269 1207 1082 1069 1056 1051 1172 1830 2461 2625 2553 2482 2440 2330 2258 2249
0 2 4 1 0 0 0 0 0 4 0 0 1 32 8 0 0 32 1002 1240 1027 560 127 37 25 110 391 538 620 710 811 1041 1037 1043 1287 1469 1670 1840 1990 2313 2268 2018 1641 1323 1216 1224 1198 1246 1322 1504 1760 1934 2125 2112 2062 2014 2004 1990 1980 2008 2020 1997 1879 1700 1560 1460 1433 1476 1456 1411 1405 1388 1279 1246 1251 1238 1218 1472 1762 1951 2282 2604 2751 2724 2662
0 0 3 5 0 0 0 0 0 0 0 0 0 0 0 0 0 40 45 1 5 25 80 38 17 2 0 0 224 604 953 1116 1238 1254 1202 1344 1606 1655 1881 2113 2103 2056 1945 1790 1632 1453 1407 1388 1374 1380 1403 1431 1436 1699 1886 1913 1873 1833 1853 1902 1912 1929 1922 1863 1718 1626 1660 1736 1780 1668 1629 1623 1620 1550 1458 1370 1446 1494 1433 1365 1305 1331 1654 1963 2160
0 0 0 2 1 0 0 0 1 0 0 0 0 0 0 0 0 1 0 0 0 0 1 2 0 0 0 0 0 31 47 601 992 1122 1229 1406 1475 1678 1867 1935 1879 1843 1836 1797 1635 1580 1576 1578 1538 1474 1412 1402 1415 1410 1389 1382 1444 1580 1620 1598 1539 1460 1371 1394 1469 1494 1576 1656 1806 1949 1929 1838 1818 1794 1791 1695 1589 1590 1590 1575 1517 1413 1233 1033 1022
3 0 0 0 9 0 0 2 0 0 0 0 0 0 0 0 0 0 0 0 0 0 0 0 0 0 0 0 0 0 0 114 195 356 826 1181 1277 1406 1581 1655 1694 1732 1738 1737 1687 1612 1567 1527 1504 1521 1534 1514 1495 1460 1406 1340 1279 1248 1222 1190 1182 1191 1236 1336 1395 1412 1446 1298 1474 1827 2013 1975 1961 1945 1927 1885 1795 1759 1770 1675 1520 1425 1339 1218 1028
16 2 0 6 14 15 26 0 0 0 0 0 0 0 0 0 0 0 0 0 0 0 0 0 0 0 0 0 0 0 0 0 0 5 125 686 1049 1271 1481 1601 1718 1732 1647 1544 1540 1559 1521 1482 1438 1421 1388 1325 1323 1325 1308 1273 1247 1190 1129 1030 915 906 992 1144 1344 1396 1401 1249 1514 1838 1973 1920 1940 1910 1923 1895 1881 1867 1874 1828 1678 1483 1388 1350 1276
13 3 4 11 20 21 9 3 0 0 0 0 0 0 0 0 0 0 0 0 0 0 0 0 0 0 0 0 0 0 0 0 0 0 0 114 544 1137 1385 1534 1601 1526 1469 1402 1422 1461 1435 1378 1305 1291 1380 1457 1502 1500 1474 1396 1299 1199 1164 1116 987 850 872 1021 1190 1301 1322 1146 1172 1646 1817 1858 1876 1902 1900 1864 1815 1785 1732 1669 1696 1610 1500 1537 1530
20 10 26 34 15 38 21 10 1 0 0 0 0 0 0 0 0 0 0 0 0 0 0 0 0 0 0 0 0 0 0 0 0 0 0 0 0 262 753 1140 1260 1214 1213 1230 1238 1317 1324 1218 1102 1035 1160 1404 1506 1483 1457 1378 1244 1221 1245 1298 1181 994 994 1067 1022 953 905 801 827 1220 1526 1645 1775 1809 1829 1808 1767 1705 1595 1512 1491 1503 1499 1428 1538
21 22 15 20 25 28 11 12 17 4 0 0 0 0 0 0 0 0 0 0 0 0 0 0 0 0 0 0 0 0 0 0 0 0 0 0 0 0 161 247 418 619 689 718 777 962 1189 1184 1010 826 795 1010 1295 1390 1351 1263 1075 948 950 1049 1126 1126 1055 1172 1305 1386 1411 1475 1537 1614 1714 1784 1792 1784 1778 1759 1705 1598 1455 1379 1379 1540 1685 1715 1586
22 28 26 28 26 37 22 22 21 24 21 4 0 0 0 0 0 0 0 0 0 0 0 0 0 0 0 0 0 0 0 0 0 0 0 0 0 0 0 0 0 119 214 356 460 461 629 988 1086 1026 853 671 716 962 1142 1165 1202 1035 849 858 961 1015 1096 1167 1168 1427 1637 1670 1634 1623 1643 1681 1706 1720 1694 1643 1549 1514 1478 1465 1426 1438 1554 1724 1880
14 23 48 29 22 21 13 15 12 4 0 0 0 0 0 0 0 0 0 0 0 0 0 0 0 0 1 4 0 0 0 0 0 0 0 0 0 0 0 0 0 0 0 0 49 203 303 474 732 810 722 572 570 714 824 948 1146 1074 842 701 755 939 1107 1119 1120 1152 1147 1154 1209 1380 1492 1548 1553 1512 1481 1491 1491 1503 1519 1478 1459 1472 1534 1683 1595
0 3 4 26 30 24 25 21 19 5 6 3 0 0 0 0 0 0 0 0 0 0 0 0 0 0 0 0 0 0 0 0 0 0 0 0 0 0 0 0 0 0 0 0 0 0 13 191 410 571 619 508 526 629 802 921 1045 1178 1215 1236 1444 1729 1862 1832 1669 1476 1331 1380 1598 1767 1691 1510 1425 1435 1514 1516 1490 1366 1403 1440 1502 1512 1588 1655 1591
0 0 2 4 1 1 2 4 3 0 0 0 0 0 0 0 0 0 0 0 0 0 0 0 0 0 0 0 6 7 12 10 0 0 0 0 0 0 0 0 0 0 0 0 0 0 60 218 425 539 637 716 728 786 951 1001 1028 1150 1263 1370 1500 1653 1798 1951 2104 2164 2178 2123 2130 2138 2090 1923 1646 1526 1499 1496 1512 1517 1465 1460 1532 1594 1655 1603 1442
0 0 0 0 0 0 0 0 0 0 0 0 0 0 0 1 3 4 4 0 0 0 0 0 0 0 0 16 20 11 7 0 0 0 0 0 0 0 0 0 0 0 1 7 12 1 3 47 25 17 319 595 646 738 892 1006 1128 1197 1299 1444 1618 1820 1989 2122 2202 2217 2246 2268 2286 2241 2198 2117 1900 1734 1634 1577 1530 1454 1323 1281 1290 1236 1215 1195 1130
1 1 0 0 0 0 0 0 0 0 0 1 1 0 0 2 9 13 6 0 2 3 3 0 0 0 0 3 3 0 0 0 0 0 0 0 0 0 0 0 4 9 1 0 0 0 0 4 102 285 448 524 572 586 655 779 901 1097 1388 1701 1778 1930 2086 2244 2339 2311 2302 2227 2162 2103 2140 2147 2088 1872 1686 1596 1561 1456 1344 1224 982 886 892 803 796
0 3 1 0 0 0 0 0 0 0 0 0 0 5 14 23 25 21 14 8 4 1 1 0 0 0 2 0 0 0 0 0 0 0 0 0 0 0 0 2 4 0 0 0 0 0 0 0 0 13 202 444 614 672 685 857 1065 1188 1312 1462 1610 1668 1689 1774 1985 2168 2163 2103 1972 1898 1937 1904 1725 1555 1503 1431 1389 1206 952 926 940 912 764 745 777
8 4 8 14 6 1 1 4 8 8 9 10 10 16 24 32 30 18 5 0 1 5 7 6 0 0 0 0 0 0 0 0 0 0 0 0 0 0 0 1 0 0 3 1 0 0 0 0 0 0 0 5 260 560 623 638 750 889 900 975 1036 1157 1333 1476 1627 1776 1910 2003 2015 2004 1920 1862 1862 1840 1779 1719 1608 1479 1313 1390 1514 1356 1136 1032 1072
15 14 16 18 19 14 17 18 20 18 19 19 15 8 3 21 30 29 14 9 9 8 7 5 0 0 0 0 0 0 1 0 0 0 0 0 0 0 0 0 0 2 4 6 2 0 0 0 0 1 0 0 0 0 240 432 555 530 482 596 823 1102 1231 1300 1422 1511 1602 1682 1725 1785 1733 1718 1756 1795 1828 1867 1889 1920 1964 1972 1875 1865 1835 1770 1583
8 8 13 16 21 27 24 21 22 19 14 15 16 25 31 32 29 28 28 26 18 12 9 7 6 5 3 6 9 4 2 0 0 0 0 0 0 0 0 0 2 4 4 2 0 0 2 2 1 2 2 2 1 1 1 1 1 36 1 266 362 531 746 854 902 909 1046 1182 1232 1365 1537 1587 1682 1798 1810 1783 1748 1781 1847 1897 1847 1863 1931 1940 1748
9 13 13 13 15 15 14 12 13 12 16 17 24 23 33 34 33 31 28 29 28 28 26 24 21 19 17 14 6 5 4 2 2 1 0 0 0 0 0 0 0 0 0 0 0 2 4 3 2 3 4 2 3 2 2 1 2 2 2 1 0 30 111 491 771 928 1047 1140 1200 1310 1383 1470 1682 1758 1787 1767 1824 1943 2019 2006 1942 1834 1883 1948 1998
2 7 7 11 10 12 10 10 15 19 21 26 31 26 25 23 22 25 36 42 42 40 36 25 18 7 7 6 7 6 5 4 4 3 1 0 0 0 0 0 0 0 0 0 0 2 2 3 3 3 4 2 2 2 2 1 1 2 2 1 1 2 1 1 1 341 654 907 1154 1391 1577 1621 1682 1769 1894 1987 2052 2074 1983 1923 1843 1785 1761 1737 1620
0 0 2 2 6 12 14 18 23 26 27 31 20 18 27 23 26 34 42 43 44 41 30 27 22 7 5 6 6 4 2 2 1 1 2 2 2 1 0 0 0 0 0 0 0 2 5 3 5 3 3 1 2 1 2 3 3 2 2 2 2 1 2 0 3 0 0 37 284 393 614 948 1280 1479 1724 1818 1825 1834 1855 1857 1686 1531 1636 1618 1644
0 0 0 3 8 11 17 22 28 26 26 25 27 27 29 28 32 41 47 45 40 33 36 30 22 20 20 14 16 12 8 4 3 4 4 4 3 2 1 0 0 0 0 0 0 0 4 5 4 2 1 2 2 3 2 2 1 1 1 1 0 0 0 0 0 0 0 0 0 29 40 224 381 523 771 1064 1266 1420 1510 1602 1628 1674 1737 1640 1532
0 0 3 9 12 14 24 29 31 34 32 29 27 23 26 30 35 43 43 43 39 38 30 24 22 22 23 22 14 11 11 10 7 6 5 4 4 3 1 0 0 0 0 0 0 0 2 1 0 0 0 0 2 2 0 0 0 0 1 0 0 0 0 0 0 0 0 0 0 0 0 0 3 103 235 372 488 483 445 499 636 758 827 942 990
0 4 10 13 23 29 34 36 34 40 28 22 25 28 30 34 32 38 38 38 32 28 24 24 22 20 20 8 6 7 6 6 5 6 6 5 4 3 1 1 0 0 0 0 0 0 0 0 0 0 0 2 0 0 0 0 0 0 0 0 0 0 0 0 0 0 0 0 0 0 0 1 1 0 0 0 108 94 1 2 2 3 4 143 217
10 14 17 20 23 25 24 25 33 29 26 29 30 27 26 27 33 34 32 25 21 22 17 19 16 18 14 4 2 2 2 3 4 3 2 2 2 2 2 1 0 0 0 0 0 0 0 0 0 0 2 1 0 0 0 0 0 0 0 0 0 0 0 0 0 0 0 0 0 0 0 0 0 0 0 2 5 8 10 11 12 10 9 9 9
9 19 10 4 2 4 8 9 9 8 8 30 30 31 35 36 37 35 32 28 18 17 14 14 14 8 2 2 1 3 3 2 2 2 2 2 2 3 3 3 2 0 0 0 0 0 0 0 0 1 2 2 0 0 0 0 0 0 0 0 0 0 0 0 0 0 0 0 0 0 0 1 1 2 1 1 1 2 4 6 9 9 10 10 12
3 1 5 7 8 10 10 8 8 7 6 4 24 34 41 36 30 27 28 27 26 26 27 16 4 3 2 0 0 1 0 3 3 2 2 2 2 4 5 4 3 1 0 0 0 0 0 0 0 0 0 0 0 0 0 0 0 0 0 0 0 0 0 0 0 0 0 0 0 0 0 0 0 1 1 5 13 5 0 0 1 1 1 1 1
Wind_Speed
15 13 11 9 11 11 11 10 9 10 10 12 12 12 13 13 10 12 10 10 9 10 7 6 6 5 6 5 4 3 3 3 3 4 4 2 4 3 2 2 2 2 1 1 2 3 3 3 4 3 4 5 6 7 6 4 5 4 6 8 9 8 8 8 8 8 9 8 10 10 9 11 11 10 11 13 13 13 11 11 12 14 14 16 16
16 15 12 11 11 12 12 12 10 10 10 12 13 12 12 14 13 13 12 10 10 11 9 9 7 7 7 6 5 5 4 3 3 4 4 4 3 5 5 4 4 3 3 1 1 1 1 2 2 2 2 4 5 7 6 6 5 5 5 5 6 6 7 9 7 8 8 12 13 12 12 13 13 12 14 12 12 12 12 11 11 14 14 14 17
16 17 15 15 14 13 13 13 12 10 10 12 12 13 13 13 14 13 13 12 11 11 11 10 9 8 8 7 5 6 5 4 3 3 4 4 4 5 6 6 5 4 3 3 2 2 3 3 1 2 4 3 4 4 6 7 7 6 6 7 6 6 7 7 9 8 7 9 11 12 12 13 13 12 12 12 12 12 10 9 10 10 13 15 16
19 20 20 19 20 20 17 13 14 12 11 12 12 14 15 14 13 14 13 14 12 12 11 11 12 10 9 9 7 6 6 4 4 4 4 4 4 4 6 6 6 4 4 5 4 4 3 3 3 3 4 4 4 4 4 5 6 7 7 7 6 5 6 8 7 8 8 8 11 10 11 12 12 12 12 12 11 9 10 9 10 11 11 13 15
24 24 24 23 22 21 23 21 16 14 13 14 14 15 15 15 14 13 14 14 14 12 13 12 12 12 10 9 9 7 7 5 5 4 4 4 3 2 3 6 6 5 5 5 6 6 5 4 3 5 5 4 4 4 4 4 4 6 8 8 7 6 6 7 6 9 10 9 9 10 10 11 12 11 12 10 9 9 9 9 10 11 12 11 10
23 26 26 26 24 25 24 23 24 26 26 25 23 21 17 14 16 13 13 13 15 13 13 12 12 12 11 9 10 8 8 8 5 4 5 5 4 3 3 3 5 5 5 6 6 7 6 5 5 5 5 5 4 5 5 5 6 7 8 8 9 10 8 9 10 9 9 7 9 9 11 10 11 11 10 8 6 6 6 7 9 10 10 8 7
32 31 31 29 30 29 27 25 24 25 26 26 24 25 27 24 19 15 13 13 11 14 13 12 13 12 11 10 9 9 8 8 8 6 6 6 6 5 4 3 3 5 6 5 6 6 6 6 6 6 6 5 5 5 6 6 7 7 7 8 10 11 11 11 10 10 11 9 9 9 8 9 11 8 8 8 8 8 6 6 7 7 9 10 6
36 35 33 32 33 30 28 28 28 27 26 26 27 28 27 25 26 26 19 12 11 9 13 11 13 13 12 10 9 9 9 8 7 7 7 6 6 5 4 5 4 4 5 6 7 7 7 8 7 7 6 6 6 6 7 7 8 7 8 10 10 10 11 12 13 12 11 10 9 8 10 8 10 10 9 10 9 8 7 9 7 6 6 9 10
35 36 36 35 33 31 29 27 27 26 27 28 28 26 27 27 25 22 24 25 22 17 11 13 12 12 13 12 11 10 10 9 9 8 7 6 7 7 5 4 5 5 4 5 5 5 6 6 7 7 8 6 7 7 7 8 9 8 7 9 9 9 9 10 11 12 12 12 11 11 11 10 9 9 8 8 7 5 5 10 9 8 8 9 9
31 33 35 35 33 30 29 28 27 27 28 29 27 24 25 25 25 23 22 22 21 20 21 17 13 13 14 13 12 11 11 11 9 7 7 7 6 5 6 5 5 6 6 5 4 4 4 5 6 4 4 5 7 7 8 8 8 9 8 9 9 9 9 9 9 9 9 10 10 11 10 9 9 10 10 9 8 8 7 7 9 9 12 12 11
29 30 35 35 34 32 30 30 28 29 29 29 27 26 24 22 23 22 20 20 22 20 18 18 17 12 13 15 13 11 11 11 11 9 8 9 7 6 5 6 6 6 7 7 5 5 4 5 5 4 5 6 6 7 8 8 8 8 9 10 11 11 11 10 9 10 10 9 10 10 10 9 9 10 10 10 11 9 9 10 10 12 13 12 9
30 30 32 33 30 30 29 29 31 31 31 30 29 28 25 24 22 20 20 21 22 21 17 14 15 15 11 12 14 13 12 11 14 12 10 10 9 8 7 6 7 7 7 7 7 7 6 6 7 8 7 7 9 8 7 8 9 8 8 9 11 12 13 13 12 12 11 11 11 10 12 10 10 12 11 13 11 10 10 13 13 14 13 12 12
28 30 29 29 29 29 28 29 29 30 30 29 29 29 28 27 25 25 24 25 29 24 18 14 12 15 17 14 10 13 13 12 13 15 14 12 10 9 8 7 6 6 7 7 8 8 9 8 7 7 8 6 8 11 11 8 6 6 7 7 8 10 11 11 14 14 15 14 14 13 13 13 13 13 15 16 17 13 12 11 11 12 13 11 9
31 31 31 28 25 26 28 29 29 28 28 28 28 29 30 29 28 28 27 28 27 27 23 17 14 15 17 19 19 19 18 14 11 13 14 14 12 10 8 8 7 6 7 8 8 8 8 9 9 9 9 8 9 13 14 12 12 10 10 11 12 10 9 10 10 10 14 15 16 15 14 18 14 16 17 17 16 14 14 12 12 10 9 7 9
37 35 32 25 22 22 25 28 30 30 28 29 29 30 30 30 29 30 30 28 27 29 30 26 23 21 21 21 20 20 19 25 22 16 13 12 10 11 10 10 9 9 8 8 9 10 10 9 9 9 10 12 12 12 16 17 15 13 12 11 11 12 12 13 15 15 15 15 14 13 14 15 14 14 16 18 16 15 16 14 14 13 10 10 12
39 35 31 26 23 21 23 26 29 29 30 30 31 31 30 29 28 29 29 29 30 30 30 27 24 22 20 19 19 17 20 23 24 23 19 18 18 19 15 12 10 10 10 11 11 12 12 12 11 10 10 11 11 12 13 18 20 17 15 13 13 13 12 11 10 11 13 14 13 12 13 13 11 12 13 14 14 15 14 16 18 16 12 10 8
nan 36 32 29 27 26 25 25 28 30 32 34 35 34 32 29 29 29 29 30 30 31 32 31 29 26 23 20 18 17 17 21 23 21 22 22 24 21 19 15 12 10 10 12 13 14 15 15 15 13 13 12 12 13 12 15 19 19 19 17 17 16 14 14 12 11 9 8 8 7 7 7 6 6 6 7 10 13 15 15 13 13 12 10 9
nan nan nan nan nan nan 30 28 27 29 31 34 36 38 36 33 32 32 31 30 30 31 33 32 30 27 26 24 20 18 16 18 20 23 22 23 25 24 22 20 15 12 10 11 13 14 15 15 18 18 16 15 15 16 16 19 19 18 20 20 19 17 15 18 19 18 14 10 7 5 3 3 4 4 5 6 7 14 17 11 13 19 15 13 12
nan nan nan nan nan nan nan nan nan 29 29 30 32 34 36 34 32 31 30 30 28 27 27 29 29 28 27 26 21 18 17 18 18 19 23 26 26 25 25 23 18 15 14 13 14 15 16 14 13 16 20 20 17 17 18 23 21 21 21 21 19 16 15 21 23 22 23 20 14 12 10 8 9 10 9 5 8 14 18 14 18 22 17 15 16
nan nan nan nan nan nan nan nan nan nan 31 30 30 30 32 33 31 28 27 28 27 26 27 27 27 26 27 28 27 23 20 21 23 20 20 25 27 27 27 24 19 18 18 17 15 16 16 17 16 14 14 16 17 18 19 22 22 22 24 23 18 13 16 22 24 23 23 24 22 20 15 14 15 16 15 15 16 20 19 20 21 23 21 17 17
nan nan nan nan nan nan nan nan nan nan 35 33 32 31 31 30 28 25 24 24 23 25 27 28 28 28 29 29 27 26 25 23 24 22 22 23 26 28 27 23 22 21 21 19 18 16 16 17 19 17 16 17 17 18 19 21 22 22 22 22 20 17 21 25 22 20 23 23 23 22 21 20 20 20 20 20 21 24 25 24 23 24 23 19 17
nan nan nan nan nan nan nan nan nan nan nan nan 37 34 32 30 28 25 25 24 23 26 29 30 28 28 29 29 29 28 28 27 31 31 30 26 26 26 26 23 22 22 20 18 18 17 17 19 19 18 16 17 18 19 19 21 23 26 20 16 14 17 22 24 26 27 26 24 24 23 23 23 23 23 23 23 25 27 27 28 27 25 24 21 19
nan nan nan nan nan nan nan nan nan nan nan 43 nan nan nan 35 32 29 27 27 27 28 31 33 32 31 31 33 33 32 32 39 39 31 27 22 18 20 20 19 19 21 19 16 16 17 20 20 18 15 16 17 18 19 20 20 26 26 19 16 17 19 25 27 26 26 25 25 24 21 21 21 21 23 26 27 29 30 30 29 27 26 23 22 20
nan nan nan nan nan nan nan nan nan nan nan nan nan nan nan 41 39 37 34 33 32 32 32 35 37 38 37 37 37 38 38 34 26 26 25 20 16 16 19 18 19 21 20 17 17 18 19 20 26 31 29 28 27 25 23 25 28 24 23 20 19 21 26 25 24 23 22 21 22 21 19 20 22 23 26 31 32 34 31 29 27 25 23 21 18
nan nan nan nan nan nan nan nan nan nan nan nan nan nan nan nan nan nan 43 42 41 39 36 nan nan 36 38 39 38 37 38 36 32 29 26 25 23 23 20 19 18 20 20 19 18 17 16 15 16 18 22 22 23 24 26 26 25 24 24 25 27 30 29 27 24 22 18 17 18 19 19 21 22 22 27 31 33 34 34 32 30 27 23 19 18
nan nan nan nan nan nan nan nan nan nan nan nan nan nan nan nan nan nan nan nan nan nan nan nan nan nan nan nan 36 35 36 37 37 36 36 33 32 29 25 22 18 17 19 19 17 16 15 13 11 11 10 12 17 22 24 26 25 23 24 28 31 31 31 28 25 22 17 15 16 17 19 23 25 26 27 30 31 28 30 28 26 23 23 22 20
nan nan nan nan nan nan nan nan nan nan nan nan nan nan nan nan nan nan nan nan nan nan nan nan nan nan nan nan nan nan nan 36 37 38 38 37 37 37 34 27 22 21 23 23 21 19 15 14 15 13 15 13 14 16 19 21 23 24 27 29 30 31 32 30 26 21 17 16 17 18 20 23 27 28 28 30 28 27 31 31 28 23 21 21 18
nan nan nan nan nan nan nan nan nan nan nan nan nan nan nan nan nan nan nan nan nan nan nan nan nan nan nan nan nan nan nan 39 39 41 38 35 32 32 30 27 25 25 24 25 26 23 22 21 19 19 20 20 21 23 25 28 28 27 27 27 28 29 29 26 24 22 19 19 19 20 22 25 26 26 28 28 25 24 30 32 28 23 24 25 19
nan nan nan nan nan nan nan nan nan nan nan nan nan nan nan nan nan nan nan nan nan nan nan nan nan nan nan nan nan nan nan nan nan nan 40 37 34 32 30 27 25 25 26 31 29 25 23 22 21 21 23 22 23 23 24 27 29 30 29 28 28 28 29 30 26 23 23 24 21 20 21 25 26 28 29 26 24 25 32 30 28 26 27 28 18
nan nan nan nan nan nan nan nan nan nan nan nan nan nan nan nan nan nan nan nan nan nan nan nan nan nan nan nan nan nan nan nan nan nan nan 41 37 33 30 28 27 28 29 29 29 26 23 22 21 22 23 24 24 25 26 27 28 30 32 31 29 29 28 28 26 25 26 26 24 23 23 26 26 28 28 26 25 29 31 31 28 30 28 26 21
nan nan nan nan nan nan nan nan nan nan nan nan nan nan nan nan nan nan nan nan nan nan nan nan nan nan nan nan nan nan nan nan nan nan nan nan nan 38 36 35 34 34 37 38 34 31 27 24 22 23 24 25 24 25 27 27 27 30 32 32 31 30 30 29 29 30 29 29 27 25 26 27 27 29 29 28 28 30 33 34 32 30 27 26 22
nan nan nan nan nan nan nan nan nan nan nan nan nan nan nan nan nan nan nan nan nan nan nan nan nan nan nan nan nan nan nan nan nan nan nan nan nan nan 39 38 37 40 39 42 36 32 32 29 25 24 25 25 25 26 27 27 27 28 31 32 30 31 32 32 32 32 32 32 31 30 30 30 30 31 32 32 33 33 33 33 32 30 28 26 23
nan nan nan nan nan nan nan nan nan nan nan nan nan nan nan nan nan nan nan nan nan nan nan nan nan nan nan nan nan nan nan nan nan nan nan nan nan nan nan nan nan 43 49 46 39 35 35 32 29 28 28 27 27 28 29 28 28 28 28 28 28 29 30 31 35 36 36 36 37 35 35 34 33 34 35 36 37 34 33 32 31 30 28 26 25
nan nan nan nan nan nan nan nan nan nan nan nan nan nan nan nan nan nan nan nan nan nan nan nan nan nan nan nan nan nan nan nan nan nan nan nan nan nan nan nan nan nan nan nan nan 41 39 36 34 32 32 30 30 31 30 29 30 29 27 26 27 29 28 30 32 32 34 34 35 34 35 36 38 38 39 40 38 35 32 30 30 30 29 28 27
nan nan nan nan nan nan nan nan nan nan nan nan nan nan nan nan nan nan nan nan nan nan nan nan nan nan nan nan nan nan nan nan nan nan nan nan nan nan nan nan nan nan nan nan nan nan nan 43 40 38 37 34 33 34 33 31 31 31 30 28 28 31 31 30 30 31 32 33 34 35 36 36 36 36 38 40 40 37 34 32 31 32 30 30 33
nan nan nan nan nan nan nan nan nan nan nan nan nan nan nan nan nan nan nan nan nan nan nan nan nan nan nan nan nan nan nan nan nan nan nan nan nan nan nan nan nan nan nan nan nan nan nan 47 44 42 42 40 37 38 39 36 33 32 33 31 29 32 32 32 32 32 31 31 32 33 34 34 34 33 33 34 35 36 38 39 36 35 36 36 39
nan nan nan nan nan nan nan nan nan nan nan nan nan nan nan nan nan nan nan nan nan nan nan nan nan nan nan nan nan nan nan nan nan nan nan nan nan nan nan nan nan nan nan nan nan nan nan nan nan nan 50 48 44 41 41 41 38 36 35 33 31 31 32 33 33 34 34 33 32 31 29 28 30 31 33 33 34 35 35 38 45 45 41 38 42
nan nan nan nan nan nan nan nan nan nan nan nan nan nan nan nan nan nan nan nan nan nan nan nan nan nan nan nan nan nan nan nan nan nan nan nan nan nan nan nan nan nan nan nan nan nan nan nan 59 58 57 56 54 51 51 51 50 48 45 40 36 33 31 32 32 34 37 38 36 32 29 28 30 33 36 36 35 37 47 52 48 43 42 42 45
nan nan nan nan nan nan nan nan nan nan nan nan nan nan nan nan nan nan nan nan nan nan nan nan nan nan nan nan nan nan nan nan nan nan nan nan nan nan nan nan nan nan nan nan nan nan nan nan nan nan 57 56 55 53 53 53 53 52 51 50 46 43 40 40 38 39 41 41 37 32 29 29 33 38 42 44 45 45 44 43 43 42 40 41 41
nan nan nan nan nan nan nan nan nan nan nan nan nan nan nan nan nan nan nan nan nan nan nan nan nan nan nan nan nan nan nan nan nan nan nan nan nan nan nan nan nan nan nan nan nan nan nan nan nan nan nan nan 55 55 55 54 55 54 53 52 50 46 44 43 43 41 42 44 42 39 38 40 44 46 48 48 44 42 41 42 41 40 38 37 39
nan nan nan nan nan nan nan nan nan nan nan nan nan nan nan nan nan nan nan nan nan nan nan nan nan nan nan nan nan nan nan nan nan nan nan nan nan nan nan nan nan nan nan nan nan nan nan nan nan nan nan nan nan nan 56 56 55 56 55 53 52 50 48 48 48 48 52 54 54 53 55 56 52 47 45 46 47 45 44 42 40 39 39 40 41
nan nan nan nan nan nan nan nan nan nan nan nan nan nan nan nan nan nan nan nan nan nan nan nan nan nan nan nan nan nan nan nan nan nan nan nan nan nan nan nan nan nan nan nan nan nan nan nan nan nan nan nan nan nan nan nan nan nan nan 56 54 53 53 52 51 52 54 54 56 56 56 55 53 51 48 48 47 46 44 42 40 39 39 41 43
nan nan nan nan nan nan nan nan nan nan nan nan nan nan nan nan nan nan nan nan nan nan nan nan nan nan nan nan nan nan nan nan nan nan nan nan nan nan nan nan nan nan nan nan nan nan nan nan nan nan nan nan nan nan nan nan nan nan nan nan nan nan 55 55 54 56 57 57 55 53 51 51 51 51 49 47 47 47 45 42 40 39 39 41 43
nan nan nan nan nan nan nan nan nan nan nan nan nan nan nan nan nan nan nan nan nan nan nan nan nan nan nan nan nan nan nan nan nan nan nan nan nan nan nan nan nan nan nan nan nan nan nan nan nan nan nan nan nan nan nan nan nan nan nan nan nan nan nan nan nan 60 58 57 56 54 51 49 48 48 47 47 47 48 47 47 45 42 41 41 42
nan nan nan nan nan nan nan nan nan nan nan nan nan nan nan nan nan nan nan nan nan nan nan nan nan nan nan nan nan nan nan nan nan nan nan nan nan nan nan nan nan nan nan nan nan nan nan nan nan nan nan nan nan nan nan nan nan nan nan nan nan nan nan nan nan nan nan nan 54 53 52 50 48 47 47 47 47 46 46 45 44 41 39 39 41
nan nan nan nan nan nan nan nan nan nan nan nan nan nan nan nan nan nan nan nan nan nan nan nan nan nan nan nan nan nan nan nan nan nan nan nan nan nan nan nan nan nan nan nan nan nan nan nan nan nan nan nan nan nan nan nan nan nan nan nan nan nan nan nan nan nan nan nan nan nan nan 50 47 45 44 46 47 46 44 42 41 40 39 37 37
nan nan nan nan nan nan nan nan nan nan nan nan nan nan nan nan nan nan nan nan nan nan nan nan nan nan nan nan nan nan nan nan nan nan nan nan nan nan nan nan nan nan nan nan nan nan nan nan nan nan nan nan nan nan nan nan nan nan nan nan nan nan nan nan nan nan nan nan nan nan nan nan nan 46 44 44 46 46 45 43 42 41 40 39 38
nan nan nan nan nan nan nan nan nan nan nan nan nan nan nan nan nan nan nan nan nan nan nan nan nan nan nan nan nan nan nan nan nan nan nan nan nan nan nan nan nan nan nan nan nan nan nan nan nan nan nan nan nan nan nan nan nan nan nan nan nan nan nan nan nan nan nan nan nan nan nan nan nan nan nan nan 45 nan nan nan nan nan nan 42 41
nan nan nan nan nan nan nan nan nan nan nan nan nan nan nan nan nan nan nan nan nan nan nan nan nan nan nan nan nan nan nan nan nan nan nan nan nan nan nan nan nan nan nan nan nan nan nan nan nan nan nan nan nan nan nan nan nan nan nan nan nan nan nan nan nan nan nan nan nan nan nan nan nan nan nan nan nan nan nan nan nan nan nan nan nan
nan nan nan nan nan nan nan nan nan nan nan nan nan nan nan nan nan nan nan nan nan nan nan nan nan nan nan nan nan nan nan nan nan nan nan nan nan nan nan nan nan nan nan nan nan nan nan nan nan nan nan nan nan nan nan nan nan nan nan nan nan nan nan nan nan nan nan nan nan nan nan nan nan nan nan nan nan nan nan nan nan nan nan nan nan
nan nan nan nan nan nan nan nan nan nan nan nan nan nan nan nan nan nan nan nan nan nan nan nan nan nan nan nan nan nan nan nan nan nan nan nan nan nan nan nan nan nan nan nan nan nan nan nan nan nan nan nan nan nan nan nan nan nan nan nan nan nan nan nan nan nan nan nan nan nan nan nan nan nan nan nan nan nan nan nan nan nan nan nan nan
Wind_Direction
252 252 251 252 254 265 267 261 246 238 237 230 226 224 219 222 221 218 222 221 223 229 226 228 233 235 223 218 247 254 254 235 235 226 228 224 194 214 201 210 207 199 264 2 64 83 88 93 112 143 191 194 184 186 199 182 183 196 196 207 202 208 225 218 212 199 191 208 225 227 212 231 245 251 240 254 271 286 296 297 302 308 317 323 327
241 231 245 264 255 262 271 269 262 246 241 233 232 231 227 224 225 227 234 227 233 236 240 229 235 245 237 234 221 244 269 265 253 237 236 235 204 218 241 248 233 221 232 212 187 166 243 73 108 135 209 201 198 189 187 199 192 189 195 192 200 196 225 235 222 227 201 206 211 221 223 236 240 248 253 253 258 272 284 293 301 309 322 325 322
236 237 238 237 241 248 262 265 269 264 250 239 236 235 231 228 229 232 234 235 238 242 244 242 243 243 246 247 241 230 253 268 267 264 249 248 226 205 235 251 247 238 239 247 239 204 217 248 220 238 237 228 199 192 196 192 211 210 194 208 212 210 227 246 244 229 221 213 231 228 234 236 246 251 249 260 264 266 274 285 305 310 313 316 319
233 233 234 236 234 229 231 253 272 266 261 253 247 236 231 230 229 230 228 236 244 239 249 253 247 247 248 243 247 238 246 251 259 268 273 260 239 213 212 233 246 249 245 245 246 248 236 234 234 257 253 248 223 225 211 208 199 224 223 217 224 209 214 240 252 259 252 241 233 249 245 238 243 248 252 256 258 264 280 297 300 303 302 312 326
209 225 230 232 225 224 232 228 233 253 262 266 259 248 238 233 234 229 227 226 232 239 247 251 251 253 255 248 243 241 246 255 243 246 250 252 266 254 208 221 228 234 244 246 251 255 257 253 252 257 257 253 240 249 252 242 224 217 229 234 235 227 229 248 256 265 261 260 245 250 255 253 259 254 257 257 261 272 282 297 303 301 302 313 331
214 221 228 229 223 220 222 230 238 242 237 232 233 233 239 248 237 233 234 226 221 232 245 250 253 256 254 256 250 244 243 251 249 235 245 253 260 251 242 216 228 235 229 240 244 248 248 255 260 265 263 267 258 261 268 280 265 253 239 234 244 245 245 254 262 262 262 262 264 241 255 264 253 263 266 270 271 275 288 294 284 291 293 294 319
233 219 217 227 229 221 221 222 227 234 237 235 236 236 230 222 228 243 249 234 230 228 234 243 252 257 257 257 256 252 247 240 243 241 237 241 253 251 247 249 225 228 234 237 239 243 247 248 249 260 267 272 275 274 275 277 282 278 268 259 252 252 251 249 253 261 268 267 260 271 259 265 275 259 263 275 284 300 313 289 282 291 293 308 321
235 232 227 222 224 222 223 228 228 231 237 242 241 237 233 233 233 225 229 245 263 253 238 246 246 255 262 261 256 252 252 247 243 245 241 242 245 247 255 250 250 233 226 230 233 233 239 242 246 251 262 266 275 274 280 279 275 276 279 271 264 259 257 259 255 256 254 257 266 261 271 267 264 277 270 260 261 263 285 300 300 290 298 301 318
236 239 235 228 223 221 225 231 230 231 238 242 243 240 243 242 238 238 241 235 225 224 240 264 268 258 259 262 261 252 251 248 245 251 255 244 241 244 254 262 260 257 246 240 237 234 230 233 239 246 257 280 304 292 290 290 276 282 281 280 277 273 268 265 268 273 270 270 262 262 261 262 269 266 262 271 284 287 271 278 287 300 305 300 311
234 241 241 237 228 225 231 234 235 236 240 246 246 243 245 247 249 248 244 242 235 229 222 220 255 282 270 264 263 259 253 249 259 306 288 260 262 258 253 261 271 272 271 257 249 253 247 237 238 275 311 313 309 311 310 312 310 292 286 285 288 283 281 277 273 271 272 268 270 269 262 264 268 275 278 279 275 258 247 262 279 285 280 295 301
226 233 236 233 234 233 235 236 236 237 240 242 241 240 241 246 252 253 252 255 252 237 221 218 221 247 291 284 277 269 265 265 301 310 320 328 296 285 293 277 275 294 297 289 282 275 261 258 249 239 249 271 288 318 312 313 309 311 312 305 292 287 280 281 276 274 275 273 267 267 265 258 260 266 270 268 265 267 269 267 277 278 286 294 302
228 235 239 239 232 231 232 234 237 239 237 236 240 245 242 233 230 238 253 259 257 257 242 224 219 230 253 290 295 285 276 290 304 308 319 328 320 296 293 300 292 298 311 316 310 299 290 277 258 253 250 254 262 275 305 323 320 312 302 294 294 298 291 282 276 267 266 267 264 266 263 262 257 262 260 262 262 259 264 275 280 281 282 287 291
232 236 236 238 234 223 224 233 238 239 236 236 236 235 235 240 236 223 222 237 243 240 245 246 231 229 236 238 269 290 281 297 308 312 317 321 326 311 277 288 299 291 296 309 313 313 306 298 287 270 259 271 266 259 260 262 286 318 312 306 293 286 280 283 284 276 268 268 269 265 270 264 263 266 268 267 269 267 260 257 263 268 272 272 280
240 242 242 241 237 230 226 228 233 236 236 234 236 236 235 237 236 234 232 234 238 245 242 236 235 235 236 242 244 239 247 252 287 303 310 316 317 306 275 283 284 288 286 286 290 301 305 301 299 296 293 286 273 273 271 271 265 257 250 248 249 254 267 275 274 273 268 267 269 269 266 266 271 270 270 268 269 271 270 267 263 253 250 259 271
247 247 248 250 249 242 237 233 231 232 233 234 236 241 240 236 233 233 236 240 240 236 239 237 228 226 233 237 242 254 256 264 272 278 269 263 269 284 277 276 271 275 282 282 279 284 288 295 295 298 294 294 291 295 285 281 277 273 271 267 262 257 256 256 261 262 262 260 264 268 266 267 268 270 270 270 270 272 273 273 272 265 254 250 252
250 251 251 252 256 258 255 245 237 236 236 235 237 238 240 241 237 235 234 238 238 240 241 242 240 238 238 239 241 244 262 274 268 274 280 284 284 269 256 256 270 276 281 281 282 279 278 283 286 289 289 289 299 318 306 289 286 286 284 277 271 268 265 270 279 275 270 268 265 265 266 271 277 275 275 274 270 266 261 253 252 251 239 234 245
nan 250 249 250 250 250 255 252 245 239 238 236 235 236 237 239 240 240 240 237 234 235 237 238 240 240 238 242 244 246 243 270 278 271 273 274 269 263 268 265 257 261 276 282 283 284 282 281 280 280 281 283 296 309 309 298 282 288 289 286 281 276 274 272 286 297 291 283 283 284 286 290 295 303 298 303 283 268 257 250 252 252 244 235 244
nan nan nan nan nan nan 251 250 250 246 239 238 238 236 235 239 240 238 238 232 227 229 230 232 233 236 235 232 237 234 236 237 252 272 276 272 271 267 267 268 270 268 264 268 272 275 282 300 291 283 281 276 287 300 303 292 281 283 285 287 287 288 285 281 276 279 300 310 315 318 311 288 269 252 251 258 274 269 270 269 268 263 258 259 253
nan nan nan nan nan nan nan nan nan 256 254 250 245 240 236 238 240 241 238 232 227 226 227 229 230 231 230 233 232 229 227 236 245 250 267 271 266 259 262 263 264 266 265 262 262 264 266 275 294 291 284 284 290 295 300 295 289 289 288 286 289 293 292 285 286 283 280 280 272 263 242 237 247 255 258 280 283 275 273 271 262 267 266 262 261
nan nan nan nan nan nan nan nan nan nan 263 260 257 252 246 241 236 235 234 233 228 226 225 226 226 228 227 227 228 230 229 233 241 247 252 262 268 258 256 258 258 257 257 257 259 263 263 264 268 273 280 283 285 289 293 299 293 289 287 290 293 292 280 279 283 284 281 284 282 281 278 264 258 259 259 259 264 272 276 272 269 271 271 268 267
nan nan nan nan nan nan nan nan nan nan 259 261 261 261 260 258 257 256 250 241 237 233 230 229 228 228 227 227 228 226 229 232 237 246 245 248 256 259 248 250 248 248 251 254 260 263 264 266 266 275 284 285 286 288 287 287 285 278 281 288 297 291 274 276 283 290 279 277 275 274 274 268 264 262 260 260 263 266 271 273 274 278 282 281 280
nan nan nan nan nan nan nan nan nan nan nan nan 260 259 260 264 265 267 267 262 250 240 237 237 240 238 233 230 230 230 228 225 229 233 236 242 249 260 249 245 246 245 247 253 257 261 263 263 264 270 283 286 285 285 285 284 289 280 282 288 278 268 271 277 276 275 277 275 271 270 270 271 269 267 264 262 263 263 266 271 277 285 290 294 295
nan nan nan nan nan nan nan nan nan nan nan 261 nan nan nan 258 260 261 261 261 256 247 240 239 240 239 234 232 232 232 233 239 235 239 240 239 242 265 274 260 245 246 245 245 251 253 256 259 264 274 285 292 294 291 287 285 278 283 294 284 271 259 258 265 267 274 278 280 278 274 271 269 266 265 265 263 261 262 264 269 277 287 293 295 298
nan nan nan nan nan nan nan nan nan nan nan nan nan nan nan 260 259 259 259 258 256 251 247 244 242 240 236 235 236 236 238 241 244 242 240 241 251 265 272 276 268 258 250 242 241 243 246 252 251 241 244 247 250 257 267 281 287 291 287 283 275 265 264 263 267 271 273 278 281 278 273 270 265 261 261 262 261 263 267 273 282 289 291 291 298
nan nan nan nan nan nan nan nan nan nan nan nan nan nan nan nan nan nan 258 259 255 253 250 nan nan 244 242 240 240 242 242 238 238 242 243 237 234 233 237 246 252 262 254 252 247 245 241 229 230 244 258 256 255 261 269 278 282 279 280 280 275 272 271 269 266 266 268 274 276 275 271 268 266 261 258 260 260 261 262 265 268 271 276 282 290
nan nan nan nan nan nan nan nan nan nan nan nan nan nan nan nan nan nan nan nan nan nan nan nan nan nan nan nan 249 247 245 242 239 237 237 235 236 235 237 242 250 262 266 250 242 232 226 227 226 231 245 262 268 270 270 272 274 279 281 281 279 278 275 272 269 269 271 270 268 269 267 264 264 263 263 264 265 267 269 267 266 265 266 263 259
nan nan nan nan nan nan nan nan nan nan nan nan nan nan nan nan nan nan nan nan nan nan nan nan nan nan nan nan nan nan nan 243 240 239 238 241 242 240 241 244 250 250 254 259 258 259 260 264 267 272 273 268 269 270 270 268 268 270 271 273 275 277 277 277 275 272 269 267 265 264 263 263 261 262 265 267 270 272 275 274 272 269 263 254 246
nan nan nan nan nan nan nan nan nan nan nan nan nan nan nan nan nan nan nan nan nan nan nan nan nan nan nan nan nan nan nan 250 246 246 242 241 244 247 246 244 243 245 245 253 257 261 263 264 267 269 270 267 267 267 269 270 271 269 269 269 271 275 279 280 276 271 264 258 257 258 258 261 263 264 263 267 270 271 271 273 273 268 264 257 248
nan nan nan nan nan nan nan nan nan nan nan nan nan nan nan nan nan nan nan nan nan nan nan nan nan nan nan nan nan nan nan nan nan nan 249 246 243 246 248 249 250 247 245 241 243 250 261 268 269 269 272 272 271 273 271 269 265 266 266 267 268 271 275 278 279 276 267 258 254 255 256 259 261 263 263 264 266 264 263 265 266 265 262 265 261
nan nan nan nan nan nan nan nan nan nan nan nan nan nan nan nan nan nan nan nan nan nan nan nan nan nan nan nan nan nan nan nan nan nan nan 246 246 248 250 250 253 256 252 247 258 260 265 265 267 268 270 272 274 277 279 278 272 266 264 264 266 268 272 275 276 270 265 263 260 256 255 257 257 260 261 261 258 260 263 266 262 262 262 264 260
nan nan nan nan nan nan nan nan nan nan nan nan nan nan nan nan nan nan nan nan nan nan nan nan nan nan nan nan nan nan nan nan nan nan nan nan nan 244 243 243 243 246 250 253 258 265 262 265 266 271 274 275 277 276 277 277 276 271 266 264 263 265 268 270 269 267 264 264 263 261 258 259 257 257 256 254 252 253 256 260 261 261 261 258 255
nan nan nan nan nan nan nan nan nan nan nan nan nan nan nan nan nan nan nan nan nan nan nan nan nan nan nan nan nan nan nan nan nan nan nan nan nan nan 245 243 247 252 257 266 263 263 266 265 264 267 272 276 278 275 273 272 273 275 274 271 269 267 265 263 264 265 264 264 265 264 261 258 255 254 254 250 249 248 251 253 257 257 257 257 256
nan nan nan nan nan nan nan nan nan nan nan nan nan nan nan nan nan nan nan nan nan nan nan nan nan nan nan nan nan nan nan nan nan nan nan nan nan nan nan nan nan 259 264 262 262 260 261 262 264 266 269 273 274 273 273 272 269 265 265 266 265 267 268 266 262 259 258 259 261 265 266 265 263 259 257 255 253 248 250 251 254 256 257 256 257
nan nan nan nan nan nan nan nan nan nan nan nan nan nan nan nan nan nan nan nan nan nan nan nan nan nan nan nan nan nan nan nan nan nan nan nan nan nan nan nan nan nan nan nan nan 258 259 260 262 265 268 272 273 274 275 276 276 274 272 268 266 263 261 260 262 263 262 262 264 268 270 270 270 268 263 262 261 257 254 255 258 261 265 269 271
nan nan nan nan nan nan nan nan nan nan nan nan nan nan nan nan nan nan nan nan nan nan nan nan nan nan nan nan nan nan nan nan nan nan nan nan nan nan nan nan nan nan nan nan nan nan nan 259 259 262 265 267 269 272 274 274 276 277 276 273 270 268 265 264 266 268 267 266 267 267 269 270 270 267 264 264 264 262 259 260 263 268 270 269 269
nan nan nan nan nan nan nan nan nan nan nan nan nan nan nan nan nan nan nan nan nan nan nan nan nan nan nan nan nan nan nan nan nan nan nan nan nan nan nan nan nan nan nan nan nan nan nan 258 259 260 263 265 265 266 269 270 273 276 278 276 272 271 271 269 268 267 267 265 263 261 262 265 267 268 270 270 269 266 260 258 258 258 255 254 257
nan nan nan nan nan nan nan nan nan nan nan nan nan nan nan nan nan nan nan nan nan nan nan nan nan nan nan nan nan nan nan nan nan nan nan nan nan nan nan nan nan nan nan nan nan nan nan nan nan nan 254 255 256 256 259 263 265 270 275 278 275 272 272 273 272 268 263 257 255 257 263 270 276 280 283 284 279 272 264 252 247 247 254 261 262
nan nan nan nan nan nan nan nan nan nan nan nan nan nan nan nan nan nan nan nan nan nan nan nan nan nan nan nan nan nan nan nan nan nan nan nan nan nan nan nan nan nan nan nan nan nan nan nan 253 253 253 253 251 248 247 248 249 250 253 259 268 271 273 273 272 266 256 248 247 253 261 270 281 285 284 284 282 270 258 256 262 268 272 275 271
nan nan nan nan nan nan nan nan nan nan nan nan nan nan nan nan nan nan nan nan nan nan nan nan nan nan nan nan nan nan nan nan nan nan nan nan nan nan nan nan nan nan nan nan nan nan nan nan nan nan 253 253 252 250 249 248 249 249 249 250 250 253 257 260 261 259 253 247 247 250 255 263 274 278 277 274 275 276 275 272 275 280 276 270 272
nan nan nan nan nan nan nan nan nan nan nan nan nan nan nan nan nan nan nan nan nan nan nan nan nan nan nan nan nan nan nan nan nan nan nan nan nan nan nan nan nan nan nan nan nan nan nan nan nan nan nan nan 251 251 250 250 250 250 249 249 249 249 249 251 254 255 252 248 247 248 256 264 269 270 271 275 279 279 274 270 271 278 279 277 276
nan nan nan nan nan nan nan nan nan nan nan nan nan nan nan nan nan nan nan nan nan nan nan nan nan nan nan nan nan nan nan nan nan nan nan nan nan nan nan nan nan nan nan nan nan nan nan nan nan nan nan nan nan nan 249 249 249 249 250 250 250 249 248 249 249 249 249 246 243 246 252 258 263 268 270 273 274 275 276 276 276 276 278 280 281
nan nan nan nan nan nan nan nan nan nan nan nan nan nan nan nan nan nan nan nan nan nan nan nan nan nan nan nan nan nan nan nan nan nan nan nan nan nan nan nan nan nan nan nan nan nan nan nan nan nan nan nan nan nan nan nan nan nan nan 251 250 248 248 249 249 251 251 248 247 248 251 257 261 265 267 269 271 274 276 276 276 278 279 280 283
nan nan nan nan nan nan nan nan nan nan nan nan nan nan nan nan nan nan nan nan nan nan nan nan nan nan nan nan nan nan nan nan nan nan nan nan nan nan nan nan nan nan nan nan nan nan nan nan nan nan nan nan nan nan nan nan nan nan nan nan nan nan 249 249 249 251 252 251 250 249 250 254 260 265 267 268 268 268 269 271 272 276 278 279 283
nan nan nan nan nan nan nan nan nan nan nan nan nan nan nan nan nan nan nan nan nan nan nan nan nan nan nan nan nan nan nan nan nan nan nan nan nan nan nan nan nan nan nan nan nan nan nan nan nan nan nan nan nan nan nan nan nan nan nan nan nan nan nan nan nan 250 249 250 252 252 251 252 255 258 261 265 266 266 265 266 268 271 273 274 278
nan nan nan nan nan nan nan nan nan nan nan nan nan nan nan nan nan nan nan nan nan nan nan nan nan nan nan nan nan nan nan nan nan nan nan nan nan nan nan nan nan nan nan nan nan nan nan nan nan nan nan nan nan nan nan nan nan nan nan nan nan nan nan nan nan nan nan nan 253 255 256 255 254 254 256 258 261 263 264 266 269 270 272 274 277
nan nan nan nan nan nan nan nan nan nan nan nan nan nan nan nan nan nan nan nan nan nan nan nan nan nan nan nan nan nan nan nan nan nan nan nan nan nan nan nan nan nan nan nan nan nan nan nan nan nan nan nan nan nan nan nan nan nan nan nan nan nan nan nan nan nan nan nan nan nan nan 257 257 256 255 256 258 261 262 264 266 270 272 274 276
nan nan nan nan nan nan nan nan nan nan nan nan nan nan nan nan nan nan nan nan nan nan nan nan nan nan nan nan nan nan nan nan nan nan nan nan nan nan nan nan nan nan nan nan nan nan nan nan nan nan nan nan nan nan nan nan nan nan nan nan nan nan nan nan nan nan nan nan nan nan nan nan nan 259 257 257 257 259 263 266 267 270 272 272 271
nan nan nan nan nan nan nan nan nan nan nan nan nan nan nan nan nan nan nan nan nan nan nan nan nan nan nan nan nan nan nan nan nan nan nan nan nan nan nan nan nan nan nan nan nan nan nan nan nan nan nan nan nan nan nan nan nan nan nan nan nan nan nan nan nan nan nan nan nan nan nan nan nan nan nan nan 260 nan nan nan nan nan nan 269 269
nan nan nan nan nan nan nan nan nan nan nan nan nan nan nan nan nan nan nan nan nan nan nan nan nan nan nan nan nan nan nan nan nan nan nan nan nan nan nan nan nan nan nan nan nan nan nan nan nan nan nan nan nan nan nan nan nan nan nan nan nan nan nan nan nan nan nan nan nan nan nan nan nan nan nan nan nan nan nan nan nan nan nan nan nan
nan nan nan nan nan nan nan nan nan nan nan nan nan nan nan nan nan nan nan nan nan nan nan nan nan nan nan nan nan nan nan nan nan nan nan nan nan nan nan nan nan nan nan nan nan nan nan nan nan nan nan nan nan nan nan nan nan nan nan nan nan nan nan nan nan nan nan nan nan nan nan nan nan nan nan nan nan nan nan nan nan nan nan nan nan
nan nan nan nan nan nan nan nan nan nan nan nan nan nan nan nan nan nan nan nan nan nan nan nan nan nan nan nan nan nan nan nan nan nan nan nan nan nan nan nan nan nan nan nan nan nan nan nan nan nan nan nan nan nan nan nan nan nan nan nan nan nan nan nan nan nan nan nan nan nan nan nan nan nan nan nan nan nan nan nan nan nan nan nan nan